Regional Weather Roundup
Issued by NWS

Home | Current Version | Previous Version | Text Only | Print | Product List | Glossary On
Versions: 1 2 3 4 5 6 7 8 9 10 11 12 13 14 15 16 17 18 19 20 21 22 23 24 25 26 27 28 29 30 31 32 33 34 35 36 37 38 39 40 41 42 43 44 45 46 47 48 49 50
000
ASUS46 KLOX 231412
RWRCA

SOUTHERN CALIFORNIA WEATHER ROUNDUP
NATIONAL WEATHER SERVICE OXNARD CALIFORNIA
700 AM PDT WED APR 23 2014

NOTE: "FAIR" INDICATES FEW OR NO CLOUDS BELOW 12,000 FEET WITH NO
SIGNIFICANT WEATHER AND/OR OBSTRUCTIONS TO VISIBILITY.

  -  STATIONS PRECEEDED BY AN ASTERISK (*) ARE NOT NWS OR FAA
     STATIONS AND ARE NOT SUBJECT TO NWS AND FAA QUALITY CONTROL.

CAZ041-042-087-231500-
LA AND ORANGE COUNTY COASTAL AREAS


CITY           SKY/WX    TMP DP  RH WIND       PRES   REMARKS
L.A. DOWNTOWN  PTCLDY    57  49  74 CALM      29.94R
L.A. AIRPORT   MOCLDY    58  50  75 E6        29.95R
LONG BEACH     CLEAR     56  50  80 CALM      29.95R

CITY           SKY/WX    TMP DP  RH WIND       PRES   REMARKS
AVALON           N/A     50 N/A N/A S2          N/A
FULLERTON      CLEAR     57  50  77 CALM      29.94R
*GETTY CENTER    N/A     54  30  40 NE9G17      N/A
HAWTHORNE      PTCLDY    58  49  72 CALM      29.95R
*LOS ALAMITOS  MOCLDY    55  50  82 CALM      29.95R
*REDONDO BEACH   N/A     52  48  86 CALM      29.93R
SANTA ANA      MOCLDY    59  50  72 E3        29.94R
STA MONICA APT PTCLDY    60  46  59 CALM      29.95R
TORRANCE       PTCLDY    54  48  82 CALM      29.96
*UCLA            N/A     59  34  38 E2        29.93R

$$

CAZ547-548-048-231500-
LA COUNTY VALLEYS AND INLAND EMPIRE


CITY           SKY/WX    TMP DP  RH WIND       PRES   REMARKS
BURBANK        CLEAR     53  41  63 CALM      29.94R
VAN NUYS       PTCLDY    58  28  32 N8G17     29.94R

CITY           SKY/WX    TMP DP  RH WIND       PRES   REMARKS
CORONA AIRPORT SUNNY     47  44  89 CALM      29.96R
*CHATSWORTH      N/A     56  35  45 SW1       29.93R
CHINO          MOCLDY    50  48  93 CALM      29.95R
MARCH AFB      CLOUDY    53  48  86 SE6       29.95R
*NORTHRIDGE      N/A     57  27  30 SE1         N/A
ONTARIO        MOCLDY    54  48  80 SW3       29.94R
*PASADENA        N/A     55  46  71 E1          N/A
RIVERSIDE      PTCLDY    51  47  86 S3        29.95R
SAN BERNARDINO PTCLDY    52  46  82 SW3       29.94
*SAN GABRIEL     N/A     55  48  77 CALM      29.93R
*WHITEMAN AP   NOT AVBL
*WOODLAND HILL   N/A     52  36  54 S2          N/A

$$

CAZ054-055-231500-
LA AND SAN BERNARDINO COUNTY MOUNTAINS


CITY           SKY/WX    TMP DP  RH WIND       PRES   REMARKS
*ACTON           N/A     39  22  49 CALM        N/A
*BIG BEAR AIRP SUNNY     32  10  40 CALM      30.00S
*BIG PINES       N/A     34  -1  22 CALM        N/A
*CHILAO          N/A     42   6  22 NW10        N/A
MT WILSON NWS    N/A     41   9  26 CALM        N/A
SANDBERG       CLEAR     37  28  70 NW35G40   30.01R WCI  24
*WARM SPRINGS    N/A     42  23  47 N7G28       N/A

$$

CAZ028-029-059-060-099-231500-
ANTELOPE VALLEY AND SURROUNDING AREAS


CITY           SKY/WX    TMP DP  RH WIND       PRES   REMARKS
LANCASTER      CLEAR     47  30  51 W14G25    29.99R
PALMDALE       CLEAR     47  29  49 W22       29.99R

CITY           SKY/WX    TMP DP  RH WIND       PRES   REMARKS
29 PALMS       MOSUNNY   54  23  30 NW16      29.98R
BARSTOW/DAGGET SUNNY     50  27  40 NW12      29.95R
BISHOP         PTCLDY    46  17  31 NW24G31   29.99R
CHINA LAKE     PTCLDY    46  19  34 CALM      29.93R
EDWARDS AFB    MOCLDY    46  26  45 W3        29.95R
MOJAVE         FAIR      52  16  24 CALM      29.96R
NEEDLES        SUNNY     68  13  12 N8        29.82R
VICTORVILLE      N/A     46  27  46 W14       29.97R

$$

CAZ039-040-231500-
VENTURA AND SANTA BARBARA COUNTY COAST


CITY           SKY/WX    TMP DP  RH WIND       PRES   REMARKS
CAMARILLO      PTCLDY    50  45  83 CALM      29.94R
NWS OXNARD       N/A     48  43  82 NE2       29.94R
OXNARD AIRPORT PTCLDY    50  42  74 E5        29.94R
*POINT MUGU    MOCLDY    50  46  86 CALM      29.94R
SBA APT/GOLETA PTCLDY    57  31  37 N8        29.94R
*SANTA BARBARA   N/A     57  33  40 CALM      30.02R
*VENTURA         N/A     49  40  72 CALM      29.99S

$$

CAZ044-045-231500-
VENTURA COUNTY VALLEYS


CITY           SKY/WX    TMP DP  RH WIND       PRES   REMARKS
*SIMI VALLEY     N/A     55  33  44 NE3       29.92R
*OJAI            N/A     45  37  76 CALM      29.92R
*FILLMORE        N/A     46  42  84 S1        29.87R

$$

CAZ053-231500-
VENTURA COUNTY MOUNTAINS


CITY           SKY/WX    TMP DP  RH WIND       PRES   REMARKS
*LOCKWOOD VLY    N/A     27  21  80 MISG        N/A
*ROSE VALLEY     N/A     34  28  80 MISG        N/A

$$

CAZ034-035-036-231500-
CENTRAL COAST AND SANTA YNEZ VALLEY


CITY           SKY/WX    TMP DP  RH WIND       PRES   REMARKS
SAN LUIS OBISP PTCLDY    52  36  54 N14       30.06S
SANTA MARIA    PTCLDY    48  35  60 NW13      30.05R

CITY           SKY/WX    TMP DP  RH WIND       PRES   REMARKS
*CAL POLY SLO    N/A     50  37  62 N17         N/A
*CAMBRIA         N/A     39  36  88 CALM      29.97R
*LOMPOC        CLEAR     46  34  61 W6        30.05R
*PISMO BEACH     N/A     52  37  57 E6        30.07R
*SANTA YNEZ    FAIR      45  36  70 W3        30.00S

$$

CAZ037-038-051-231500-
SAN LUIS OBISPO COUNTY INTERIOR AND CUYAMA VALLEY


CITY           SKY/WX    TMP DP  RH WIND       PRES   REMARKS
*CUYAMA          N/A     44  26  48 SE2       29.96R
PASO ROBLES    PTCLDY    42  35  76 N5        30.08R

$$

CAZ032-033-061-231500-
SOUTHERN DESERTS


CITY           SKY/WX    TMP DP  RH WIND       PRES   REMARKS
BLYTHE         SUNNY     64  15  15 W3        29.82R
IMPERIAL       SUNNY     62  39  42 NW6       29.81R
PALM SPRINGS   SUNNY     64  43  46 NW13G22   29.85R
THERMAL        SUNNY     66  44  45 NW15G23   29.81R HAZE

$$

ELSEWHERE ACROSS THE WESTERN UNITED STATES AND MEXICO


CITY           SKY/WX    TMP DP  RH WIND       PRES   REMARKS
DENVER, CO     MOSUNNY   57  29  34 SW12      29.63R
GRAND CANYON,  CLOUDY    36  13  38 CALM      29.92R
HONOLULU, HI   PTCLDY    75  63  64 NE14      30.04F
KAHULUI, MAUI  CLEAR     73  64  73 NE16G25   30.04R
LAKE TAHOE, CA CLEAR     26  20  77 S3        30.06R
LAS VEGAS, NV  CLOUDY    61  11  14 NW15G25   29.87R
MAMMOTH LAKES, FAIR      28  14  54 E3        30.02R
MEXICO CITY, M MOSUNNY   61  50  67 E3        30.33R
PHOENIX, AZ    MOSUNNY   71  17  12 NW8       29.77R
PORTLAND, OR   LGT RAIN  46  43  89 S8        29.97S
RENO, NV       PTCLDY    35  22  58 CALM      30.07R
SALT LAKE CITY PTSUNNY   41  28  60 NW9       29.99R
SAN DIEGO, CA  MOCLDY    60  48  64 E5        29.96R
SAN FRANCISCO, PTCLDY    52  44  74 W8        30.13R
SAN JOSE, CA   MOCLDY    49  38  65 CALM      30.14R
SEATTLE, WA    MOCLDY    44  40  85 S14       29.91R
TIJUANA, MEX   MOCLDY    55  46  71 E6        29.97R

$$

STATION/POSITION TIME  TEMP    WIND        PRES    VSBY  WAVE
                       AIR SEA DIR/SP/G                  HT/PER
                 (UTC) (F)     (DEG/KT/KT) (MB)    (MI)  (FT/S)
POINT ARGUELLO B NOT AVBL
WEST SANTA BARBA 1400   53 53  330/ 23/ 27 1015.5R         9/ 8
POINT CONCEPTION NOT AVBL
EAST SANTA BARBA NOT AVBL
SANTA MONICA BAY 1400   58 60  310/ 14/ 16 1013.5R         6/10



USA.gov is the U.S. government's official web portal to all federal, state and local government web resources and services.